Regional Weather Roundup
Issued by NWS Austin/San Antonio, TX

Home | Current Version | Previous Version | Text Only | Print | Product List | Glossary On
Versions: 1 2 3 4 5 6 7 8 9 10 11 12 13 14 15 16 17 18 19 20 21 22 23 24 25 26 27 28 29 30 31 32 33 34 35 36 37 38 39 40 41 42 43 44 45 46 47 48 49 50
000
ASUS44 KEWX 211510
RWREWX
SOUTH TEXAS REGIONAL WEATHER ROUNDUP
NATIONAL WEATHER SERVICE AUSTIN/SAN ANTONIO TX
1000 AM CDT TUE AUG 21 2018

NOTE: "FAIR" INDICATED FEW OR NO CLOUDS BELOW 12,000 FEET WITH NO
SIGNIFICANT WEATHER AND/OR OBSTRUCTIONS TO VISIBILITY.

* - THESE STATIONS ARE NOT NWS OR FAA STATIONS...AND ARE NOT SUBJECT
    TO NWS AND FAA QUALITY CONTROL.

TXZ171-172-183>190-211600-
TEXAS HILL COUNTRY AND EDWARDS PLATEAU

CITY           SKY/WX    TMP DP  RH WIND       PRES   REMARKS
JUNCTION       SUNNY     80  73  79 S6        30.17R
*LLANO         SUNNY     84  70  61 W3        30.17S
BURNET         SUNNY     85  67  54 SW9       30.16S
*HORSESHOE BAY SUNNY     85  69  56 NW5       30.14R
*KERRVILLE     SUNNY     82  72  73 S6        30.16S
*FREDERICKSBRG SUNNY     83  67  58 S5        30.16S
*ROCKSPRINGS   SUNNY     79  68  69 S5        30.23S
*BOERNE STAGE  SUNNY     81  70  69 SW7       30.16S
*CASTROVILLE   MOSUNNY   84  71  64 S6        30.14S
HONDO          SUNNY     84  74  71 CALM      30.13R HX  91
*UVALDE        MOSUNNY   82  72  70 SE3       30.13S
DEL RIO        SUNNY     83  73  72 SE13      30.09S
LAUGHLIN AFB   MOSUNNY   84  71  66 SE12      30.11R
CARRIZO SPRGS  PTSUNNY   82  73  74 SE6       30.09R
*EAGLE PASS      N/A     84  72  65 VRB6      30.10S
*FAITH RANCH   MOSUNNY   84  73  70 SE9       30.09S HX  91
$$

TXZ173-191>194-202-209-217>225-228-211600-
CENTRAL AND SOUTH CENTRAL TEXAS

CITY           SKY/WX    TMP DP  RH WIND       PRES   REMARKS
GEORGETOWN     MOSUNNY   83  73  72 W5        30.14S
AUSTIN/BERGSTM MOSUNNY   88  72  58 SW9       30.11R HX  94
AUSTIN/MABRY   SUNNY     88  70  55 VRB5      30.13R HX  93
*AUSTIN/EXEC   SUNNY     84  72  65 SW8       30.12S
*LAGO VISTA    SUNNY     83  71  68 W6        30.15S
SAN MARCOS     SUNNY     87  73  62 SW12G17   30.12S HX  94
NEW BRAUNFELS  SUNNY     86  72  62 SW10      30.10S HX  92
RANDOLPH AFB   SUNNY     86  73  65 SW8       30.12S HX  92
PT SAN ANTONIO MOSUNNY   86  73  64 S5        30.12R HX  92
SAN ANTONIO    MOSUNNY   85  71  63 W8        30.12S HX  90
STINSON FIELD  SUNNY     86  72  62 SW8       30.10S HX  92
*LA GRANGE     MOSUNNY   87  75  67 W8        30.09S HX  96
*GIDDINGS      SUNNY     85  72  63 W6        30.13R HX  91
*GONZALES      MOSUNNY   86  75  70 SW8       30.10S HX  95
$$

TXZ163>164-176>182-195>201-210>213-226-227-235-211600-
SOUTHEAST TEXAS

CITY           SKY/WX    TMP DP  RH WIND       PRES   REMARKS
COLLEGE STN    MOSUNNY   85  75  72 W14       30.11R HX  93
*BRYAN         MOSUNNY   85  74  68 W13       30.12S HX  92
*CALDWELL      SUNNY     86  74  65 W10       30.12R HX  94
*CROCKETT        N/A    N/A N/A N/A MISG        N/A
*BRENHAM       MOSUNNY   88  75  65 SW10      30.12S HX  97
HUNTSVILLE     MOSUNNY   86  74  67 W12       30.10S HX  94
CONROE         PTSUNNY   86  77  74 SW9       30.11S HX  97
HOUSTON BUSH   PTSUNNY   87  78  74 W8        30.10R HX 100
HOUSTON HOBBY  FAIR      87  79  76 W9        30.09S HX 101
*HOUSTON SW AP CLOUDY    85  78  78 MISG      30.11R HX  97
PEARLAND       FAIR      86  79  79 W6        30.11R HX  99
HOUSTON HOOKS  FAIR      85  77  77 W8        30.10S HX  95
ELLINGTON FLD  NOT AVBL
SUGAR LAND     PTSUNNY   89  78  70 W12       30.10R HX 103
*HOUSTON EXEC  FAIR      88  77  70 W8        30.11S HX 100
*CLEVELAND MUN CLOUDY    85  74  70 W6        30.11S HX  93
*WHARTON         N/A     86  74  67 SW8       30.11S HX  93
*COLUMBUS      FAIR      86  74  66 W10       30.12S HX  94
*EAGLE LAKE    PTSUNNY   88  77  70 W10       30.10S HX  99
$$

TXZ214>216-236>238-211600-
THE UPPER TEXAS COAST

CITY           SKY/WX    TMP DP  RH WIND       PRES   REMARKS
*ORANGE        PTSUNNY   86  80  81 NW8       30.11S HX 102
PORT ARTHUR    FAIR      87  77  72 W12       30.09R HX  99
GALVESTON      FAIR      88  79  74 VRB7      30.10R HX 103
ANGLETON       PTSUNNY   86  78  77 VRB7      30.10R HX  98
*BAY CITY      PTSUNNY   87  77  72 W8        30.10R HX  99
PALACIOS       PTSUNNY   89  77  67 SW13      30.09R HX 101
$$

TXZ229>234-239>247-211600-
TEXAS COASTAL BEND AND RIO GRANDE PLAINS

CITY           SKY/WX    TMP DP  RH WIND       PRES   REMARKS
VICTORIA       MOSUNNY   85  75  72 W6        30.10R HX  93
*BEEVILLE      MOSUNNY   86  75  68 S10       30.09S HX  94
ROCKPORT       MOSUNNY   87  76  69 VRB7      30.08R HX  97
*PORT ARANSAS  SUNNY     86  78  77 S8        30.10R HX  97
*PORT LAVACA   MOSUNNY   89  75  63 SW9       30.10R HX  99
*INGLESIDE     PTSUNNY   89  76  67 S9        30.08R HX 100
CORPUS CHRISTI MOSUNNY   87  77  72 S10       30.07S HX  99
CORPUS NAS     MOSUNNY   89  79  72 S12       30.07S HX 104
*ROBSTOWN      MOSUNNY   87  75  68 S10       30.08S HX  96
ALICE          PTSUNNY   87  75  67 S10       30.07R HX  96
KINGSVILLE NAS MOSUNNY   88  76  67 S12       30.07R HX  99
COTULLA        MOSUNNY   84  75  74 SE8       30.09R HX  92
LAREDO         SUNNY     86  74  67 SE12      30.07S HX  94
$$

TXZ248>255-211600-
DEEP SOUTH TEXAS

CITY           SKY/WX    TMP DP  RH WIND       PRES   REMARKS
BROWNSVILLE    FAIR      88  76  67 S14       30.07R HX  99
PORT ISABEL    FAIR      88  74  63 S12       30.07R HX  96
HARLINGEN      SUNNY     88  77  69 S15G21    30.06R HX 100
*HEBBRONVILLE  MOSUNNY   83  72  67 S6        30.09S
MCALLEN        MOSUNNY   89  76  65 S13       30.07R HX 100
*WESLACO       PTSUNNY   87  75  65 S8        30.06R HX  96
FALFURRIAS     PTSUNNY   86  75  70 S8        30.07S HX  95
EDINBURG       FAIR      89  74  59 S10       30.07S HX  98
*ZAPATA        FAIR      87  71  58 SE8       30.06S HX  92
$$

TXZ213>215-236>238-242>244-246-247-251-254-255-211600-
CMAN STATIONS

STATION/POSITION TIME  TEMP    WIND        PRES    WAVE
                       AIR SEA DIR/SP/G            HT/PER
                 (UTC) (F)     (DEG/KT/KT) (MB)    (FT/S)
SABINE PASS      1442   86 91  280/  8/ 15 1020.6
SEA RIM ST PARK  1500   86     280/ 11/ 13 1019.5
NORTH JETTY/GLS  1442   84 86  280/ 10/ 11 1018.5
EAGLE POINT      1442   85 86  280/  5/ 10 1019.1
MORGANS POINT    1442   85 86  270/  5/ 10 1019.0
PORT O`CONNOR    1442   84 86  240/  7/  9 1018.4
PORT ARANSAS     1500   82 83  190/  5/  5 1018.5
MALAQUITE BEACH  1436   83 78  150/  4/  5 1018.1
BAFFIN BAY       1436   83 83  160/  7/  9 1018.4
PORT ISABEL      1436   85 81  140/  7/ 11 1018.4
$$




USA.gov is the U.S. government's official web portal to all federal, state and local government web resources and services.